Memphis, TN

1:57 AM CDT on April 24, 2018 (GMT -0500)
Memphis International

Weather History for KMEM - April, 2013

Change the Weather History Date:

Tuesday, April 23, 2013

  Actual Average Record
Temperature  
Mean Temperature 69 °F 65 °F  
Max Temperature 77 °F 75 °F 89 °F (1965)
Min Temperature 60 °F 55 °F 37 °F (1959)
Degree Days  
Heating Degree Days 0 3  
Month to date heating degree days 142 121  
Since 1 July heating degree days 2846 2929  
Cooling Degree Days 4 3  
Month to date cooling degree days 59 51  
Year to date cooling degree days 70 71  
Growing Degree Days 18 (Base 50)    
Moisture  
Dew Point 57 °F    
Average Humidity 71    
Maximum Humidity 84    
Minimum Humidity 57    
Precipitation  
Precipitation 0.62 in 0.19 in 4.25 in (1985)
Month to date precipitation 6.00 4.20  
Year to date precipitation 22.95 17.73  
Snow  
Snow 0.00 in - - ()
Month to date snowfall 0.0  
Snow Depth 0.00 in    
Sea Level Pressure  
Sea Level Pressure 30.00 in    
Wind  
Wind Speed 13 mph (South)    
Max Wind Speed 24 mph    
Max Gust Speed 30 mph    
Visibility 10 miles    
Events Rain , Thunderstorm    
T = Trace of Precipitation, MM = Missing Value Source: NWS Daily Summary

Daily Weather History Graph

Daily Weather History Graph

Search for Another Location

Airport or City:

Astronomy

Apr. 23, 2013 Rise Set
Actual Time 6:17 AM CDT 7:39 PM CDT
Civil Twilight 5:51 AM CDT 8:05 PM CDT
Nautical Twilight 5:19 AM CDT 8:37 PM CDT
Astronomical Twilight 4:46 AM CDT 9:10 PM CDT
Moon 5:38 PM CDT (4/23) 4:40 AM CDT (4/23)
Length of Visible Light 14h 14m
Length of Day
13h 21m
Waxing Gibbous, 94% of the Moon is Illuminated
Apr 23
Waxing Gibbous
Apr 25
Full
May 2
Last Quarter
May 9
New
May 17
First Quarter

Hourly Weather History & Observations

Time (CDT) Temp. Dew Point Humidity Pressure Visibility Wind Dir Wind Speed Gust Speed Precip Events Conditions
12:54 AM 63.0 °F 48.9 °F 60% 30.04 in 10.0 mi SSE 8.1 mph - N/A   Scattered Clouds
1:54 AM 62.1 °F 50.0 °F 65% 30.02 in 10.0 mi SSE 8.1 mph - N/A   Scattered Clouds
2:54 AM 61.0 °F 51.1 °F 70% 30.01 in 10.0 mi SSE 9.2 mph - N/A   Scattered Clouds
3:54 AM 61.0 °F 52.0 °F 72% 30.01 in 10.0 mi South 8.1 mph - N/A   Overcast
4:54 AM 60.1 °F 53.1 °F 78% 30.01 in 10.0 mi SSE 10.4 mph - N/A   Overcast
5:54 AM 60.1 °F 54.0 °F 80% 30.01 in 10.0 mi South 9.2 mph - N/A   Overcast
6:54 AM 61.0 °F 55.9 °F 83% 30.02 in 10.0 mi South 9.2 mph - N/A   Overcast
7:43 AM 62.6 °F 57.2 °F 82% 30.04 in 10.0 mi South 12.7 mph - N/A   Mostly Cloudy
7:54 AM 63.0 °F 57.9 °F 84% 30.04 in 10.0 mi South 11.5 mph - N/A   Mostly Cloudy
8:16 AM 64.4 °F 57.2 °F 77% 30.04 in 10.0 mi South 17.3 mph 21.9 mph N/A   Overcast
8:30 AM 64.4 °F 57.2 °F 77% 30.03 in 10.0 mi South 20.7 mph 27.6 mph N/A   Mostly Cloudy
8:54 AM 63.0 °F 57.0 °F 81% 30.04 in 9.0 mi South 16.1 mph 23.0 mph N/A   Overcast
9:54 AM 64.0 °F 57.9 °F 80% 30.06 in 10.0 mi SSW 16.1 mph 25.3 mph N/A   Overcast
10:10 AM 64.4 °F 57.2 °F 77% 30.07 in 10.0 mi South 11.5 mph 21.9 mph N/A   Overcast
10:54 AM 64.9 °F 59.0 °F 81% 30.06 in 9.0 mi SSW 12.7 mph - N/A   Overcast
11:23 AM 69.8 °F 60.8 °F 73% 30.06 in 10.0 mi South 12.7 mph - N/A   Overcast
11:31 AM 68.0 °F 59.0 °F 73% 30.06 in 10.0 mi South 16.1 mph 21.9 mph N/A   Overcast
11:54 AM 69.1 °F 59.0 °F 70% 30.05 in 10.0 mi South 17.3 mph 24.2 mph N/A   Overcast
12:20 PM 71.6 °F 60.8 °F 69% 30.03 in 10.0 mi South 20.7 mph - N/A   Mostly Cloudy
12:54 PM 70.0 °F 57.9 °F 65% 30.02 in 10.0 mi South 15.0 mph 25.3 mph N/A   Overcast
1:04 PM 71.6 °F 59.0 °F 64% 30.02 in 10.0 mi South 16.1 mph 24.2 mph N/A   Overcast
1:14 PM 73.4 °F 57.2 °F 57% 30.01 in 10.0 mi South 18.4 mph 24.2 mph N/A   Overcast
1:27 PM 71.6 °F 57.2 °F 60% 30.01 in 10.0 mi South 19.6 mph 24.2 mph N/A   Overcast
1:54 PM 73.0 °F 57.9 °F 59% 29.99 in 10.0 mi South 18.4 mph 26.5 mph N/A   Overcast
2:26 PM 73.4 °F 57.2 °F 57% 29.99 in 10.0 mi South 20.7 mph 27.6 mph N/A   Mostly Cloudy
2:54 PM 73.9 °F 57.9 °F 57% 29.96 in 10.0 mi South 20.7 mph 27.6 mph N/A   Mostly Cloudy
3:54 PM 75.9 °F 59.0 °F 56% 29.94 in 10.0 mi South 17.3 mph 26.5 mph N/A   Mostly Cloudy
4:54 PM 75.0 °F 59.0 °F 57% 29.92 in 10.0 mi South 20.7 mph 26.5 mph N/A   Mostly Cloudy
5:54 PM 75.0 °F 60.1 °F 60% 29.91 in 10.0 mi South 15.0 mph - N/A   Mostly Cloudy
6:54 PM 73.0 °F 60.1 °F 64% 29.91 in 10.0 mi South 10.4 mph - N/A   Scattered Clouds
7:54 PM 71.1 °F 60.1 °F 68% 29.92 in 10.0 mi South 11.5 mph - N/A   Mostly Cloudy
8:54 PM 72.0 °F 59.0 °F 64% 29.92 in 10.0 mi South 12.7 mph - 0.00 in   Overcast
9:54 PM 71.1 °F 60.1 °F 68% 29.94 in 10.0 mi South 9.2 mph - N/A   Overcast
10:54 PM 70.0 °F 60.1 °F 71% 29.93 in 10.0 mi South 9.2 mph - N/A   Overcast
11:49 PM 68.0 °F 62.6 °F 83% 29.94 in 10.0 mi Variable 6.9 mph - 0.01 in Rain , Thunderstorm Light Thunderstorms and Rain
11:54 PM 66.9 °F 62.1 °F 84% 29.94 in 6.0 mi SW 8.1 mph - 0.07 in Rain , Thunderstorm Heavy Thunderstorms and Rain